This demonstration page uses our WeatherBlox Daily Observations layout. Learn more.

Left ArrowRight Arrow

Hourly Observations for October 31, 2015

Temp ( °F °C ) Dew Point ( °F °C ) Humidity (%) Winds ( mph kmh ) Pressure ( in mb ) Visibility ( mi km ) Precip ( " mm )
12:53 am 00:53 Clear 57 13.9 47 8.3 69 69 Calm 30.00 1016 10 16 0.00 0.00
1:53 am 01:53 Clear 56 13.3 46 7.8 70 70 Calm 30.01 1016 10 16 0.00 0.00
2:53 am 02:53 Clear 54 12.2 45 7.2 72 72 Calm 30.02 1017 10 16 0.00 0.00
3:53 am 03:53 Clear 53 11.7 45 7.2 74 74 Calm 30.02 1017 10 16 0.00 0.00
4:53 am 04:53 Clear 51 10.6 44 6.7 77 77 Calm 30.02 1017 10 16 0.00 0.00
5:53 am 05:53 Clear 49 9.4 43 6.1 80 80 Calm 30.04 1017 10 16 0.00 0.00
6:53 am 06:53 Clear 49 9.4 43 6.1 80 80 Calm 30.06 1018 10 16 0.00 0.00
7:53 am 07:53 Sunny 50 10 43 6.1 77 77 Calm 30.06 1018 10 16 0.00 0.00
8:53 am 08:53 Sunny 56 13.3 47 8.3 72 72 Calm 30.08 1019 10 16 0.00 0.00
9:53 am 09:53 Sunny 63 17.2 49 9.4 60 60 Calm 30.10 1019 10 16 0.00 0.00
10:53 am 10:53 Sunny 68 20 47 8.3 47 47 Calm 30.09 1019 10 16 0.00 0.00
11:53 am 11:53 Sunny 71 21.7 44 6.7 38 38 S 9 15 30.08 1019 10 16 0.00 0.00
12:53 pm 12:53 Sunny 72 22.2 46 7.8 40 40 S 3 6 30.06 1018 10 16 0.00 0.00
1:53 pm 13:53 Sunny 76 24.4 44 6.7 32 32 VRB 6 9 30.03 1017 10 16 0.00 0.00
2:53 pm 14:53 Sunny 79 26.1 42 5.6 27 27 S 12 19 30.00 1016 10 16 0.00 0.00
3:53 pm 15:53 Sunny 78 25.6 43 6.1 29 29 S 9 15 29.98 1015 10 16 0.00 0.00
4:53 pm 16:53 Sunny 78 25.6 45 7.2 31 31 S 12 19 29.97 1015 10 16 0.00 0.00
5:53 pm 17:53 Sunny 75 23.9 46 7.8 36 36 SSW 6 9 29.97 1015 10 16 0.00 0.00
6:53 pm 18:53 Clear 70 21.1 47 8.3 44 44 SW 3 6 29.96 1015 10 16 0.00 0.00
7:53 pm 19:53 Clear 67 19.4 47 8.3 49 49 Calm 29.96 1015 10 16 0.00 0.00

Powered by AerisWeather